Weather History for Crockett, TX

Change the Weather History Date:

Saturday, December 22, 2012

  Actual Average (KLFK) Record (KLFK)
Temperature  
Mean Temperature 48 °F 49 °F  
Max Temperature 66 °F 60 °F 80 °F (1933)
Min Temperature 30 °F 38 °F 14 °F (1989)
Degree Days  
Heating Degree Days 17 16  
Month to date heating degree days 322  
Since 1 July heating degree days 629  
Cooling Degree Days 0 0  
Month to date cooling degree days 4  
Year to date cooling degree days 2587  
Moisture  
Dew Point 38 °F    
Average Humidity 65    
Maximum Humidity 93    
Minimum Humidity 41    
Precipitation  
Precipitation 0.00 in 0.14 in 4.12 in (1907)
Month to date precipitation 3.23  
Year to date precipitation 47.74  
Snow  
Snow 0.00 in - - ()
Month to date snowfall  
Since 1 July snowfall  
Snow Depth -    
Sea Level Pressure  
Sea Level Pressure 30.29 in    
Wind  
Wind Speed 3 mph (South)    
Max Wind Speed 17 mph    
Max Gust Speed 22 mph    
Visibility 10 miles    
Events      
T = Trace of Precipitation, MM = Missing Value Source: NWS Daily Summary

Daily Weather History Graph

Daily Weather History Graph

Search for Another Location

Airport:

Trip Planner

Search our weather history database for the weather conditions in past years. The results will help you decide how hot, cold, wet, or windy it might be!

Date:

Astronomy

Dec. 22, 2012 Rise Set
Actual Time 7:17 AM CST 5:23 PM CST
Civil Twilight 6:50 AM CST 5:50 PM CST
Nautical Twilight 6:20 AM CST 6:21 PM CST
Astronomical Twilight 5:50 AM CST 6:50 PM CST
Moon 1:31 PM CST (12/22) 2:14 AM CST (12/22)
Length of Visible Light 11h 00m
Length of Day
10h 06m
Waxing Gibbous, 74% of the Moon is Illuminated
Dec 22
Waxing Gibbous
Dec 28
Full
Jan 4
Last Quarter
Jan 11
New
Jan 18
First Quarter

Hourly Weather History & Observations

Time (CST) Temp. Dew Point Humidity Pressure Visibility Wind Dir Wind Speed Gust Speed Precip Events Conditions
12:15 AM 37.4 °F 30.2 °F 75% 30.41 in 10.0 mi Calm Calm - N/A   Clear
12:35 AM 37.4 °F 32.0 °F 81% 30.39 in 10.0 mi Calm Calm - N/A   Clear
12:55 AM 35.6 °F 32.0 °F 87% 30.39 in 10.0 mi Calm Calm - N/A   Clear
1:15 AM 37.4 °F 32.0 °F 81% 30.39 in 10.0 mi Calm Calm - N/A   Clear
1:35 AM 37.4 °F 32.0 °F 81% 30.39 in 10.0 mi Calm Calm - N/A   Clear
1:55 AM 37.4 °F 32.0 °F 81% 30.39 in 10.0 mi Calm Calm - N/A   Clear
2:15 AM 35.6 °F 30.2 °F 81% 30.39 in 10.0 mi Calm Calm - N/A   Clear
2:35 AM 33.8 °F 30.2 °F 87% 30.38 in 10.0 mi Calm Calm - N/A   Clear
2:55 AM 33.8 °F 30.2 °F 87% 30.38 in 10.0 mi Calm Calm - N/A   Clear
3:15 AM 33.8 °F 30.2 °F 87% 30.38 in 10.0 mi Calm Calm - N/A   Clear
3:35 AM 33.8 °F 30.2 °F 87% 30.38 in 10.0 mi Calm Calm - N/A   Clear
3:55 AM 32.0 °F 30.2 °F 93% 30.37 in 10.0 mi Calm Calm - N/A   Clear
4:15 AM 32.0 °F 28.4 °F 87% 30.37 in 10.0 mi Calm Calm - N/A   Clear
4:35 AM 32.0 °F 28.4 °F 87% 30.37 in 10.0 mi Calm Calm - N/A   Clear
4:55 AM 32.0 °F 28.4 °F 87% 30.37 in 10.0 mi Calm Calm - N/A   Clear
5:15 AM 32.0 °F 28.4 °F 87% 30.36 in 10.0 mi Calm Calm - N/A   Clear
5:35 AM 32.0 °F 28.4 °F 87% 30.37 in 10.0 mi Calm Calm - N/A   Clear
6:15 AM 30.2 °F 26.6 °F 86% 30.37 in 10.0 mi Calm Calm - N/A   Clear
6:35 AM 30.2 °F 28.4 °F 93% 30.37 in 10.0 mi Calm Calm - N/A   Clear
6:55 AM 30.2 °F 26.6 °F 86% 30.38 in 10.0 mi Calm Calm - N/A   Clear
7:15 AM 30.2 °F 28.4 °F 93% 30.38 in 10.0 mi Calm Calm - N/A   Clear
7:35 AM 30.2 °F 26.6 °F 86% 30.38 in 10.0 mi Calm Calm - N/A   Clear
7:55 AM 32.0 °F 28.4 °F 87% 30.39 in 10.0 mi Calm Calm - N/A   Clear
8:15 AM 33.8 °F 30.2 °F 87% 30.39 in 10.0 mi Calm Calm - N/A   Clear
8:35 AM 37.4 °F 32.0 °F 81% 30.39 in 10.0 mi Calm Calm - N/A   Clear
8:55 AM 42.8 °F 32.0 °F 66% 30.39 in 10.0 mi Calm Calm - N/A   Clear
9:15 AM 46.4 °F 30.2 °F 53% 30.39 in 10.0 mi Calm Calm - N/A   Clear
9:35 AM 48.2 °F 30.2 °F 50% 30.39 in 10.0 mi SSW 3.5 mph - N/A   Clear
9:55 AM 51.8 °F 28.4 °F 41% 30.39 in 10.0 mi SSW 3.5 mph - N/A   Clear
10:15 AM 55.4 °F 32.0 °F 41% 30.38 in 10.0 mi Calm Calm - N/A   Clear
10:35 AM 57.2 °F 33.8 °F 41% 30.38 in 10.0 mi South 6.9 mph - N/A   Clear
10:55 AM 59.0 °F 35.6 °F 42% 30.37 in 10.0 mi Calm Calm - N/A   Clear
11:15 AM 60.8 °F 39.2 °F 45% 30.36 in 10.0 mi South 9.2 mph - N/A   Clear
11:35 AM 62.6 °F 39.2 °F 42% 30.34 in 10.0 mi SSW 8.1 mph - N/A   Clear
11:55 AM 64.4 °F 44.6 °F 49% 30.33 in 10.0 mi SSW 8.1 mph - N/A   Clear
12:15 PM 64.4 °F 42.8 °F 45% 30.31 in 10.0 mi SSW 13.8 mph 20.7 mph N/A   Clear
12:35 PM 64.4 °F 42.8 °F 45% 30.30 in 10.0 mi SSW 13.8 mph - N/A   Clear
12:55 PM 66.2 °F 42.8 °F 43% 30.29 in 10.0 mi SSW 10.4 mph 19.6 mph N/A   Clear
1:15 PM 66.2 °F 44.6 °F 46% 30.28 in 10.0 mi SSW 11.5 mph 21.9 mph N/A   Clear
1:35 PM 66.2 °F 42.8 °F 43% 30.26 in 10.0 mi South 15.0 mph 18.4 mph N/A   Clear
1:55 PM 66.2 °F 42.8 °F 43% 30.25 in 10.0 mi SSW 13.8 mph 18.4 mph N/A   Clear
2:15 PM 66.2 °F 42.8 °F 43% 30.24 in 10.0 mi SSW 17.3 mph - N/A   Clear
2:35 PM 66.2 °F 42.8 °F 43% 30.23 in 10.0 mi SSW 11.5 mph 16.1 mph N/A   Clear
2:55 PM 66.2 °F 42.8 °F 43% 30.22 in 10.0 mi South 11.5 mph - N/A   Clear
3:15 PM 66.2 °F 42.8 °F 43% 30.22 in 10.0 mi South 13.8 mph - N/A   Clear
3:35 PM 66.2 °F 42.8 °F 43% 30.22 in 10.0 mi South 10.4 mph 17.3 mph N/A   Clear
3:55 PM 64.4 °F 42.8 °F 45% 30.22 in 10.0 mi SSW 10.4 mph 16.1 mph N/A   Clear
4:35 PM 64.4 °F 44.6 °F 49% 30.22 in 10.0 mi South 6.9 mph - N/A   Partly Cloudy
4:55 PM 62.6 °F 44.6 °F 52% 30.22 in 10.0 mi South 3.5 mph - N/A   Scattered Clouds
5:15 PM 62.6 °F 44.6 °F 52% 30.21 in 10.0 mi Calm Calm - N/A   Mostly Cloudy
5:35 PM 62.6 °F 44.6 °F 52% 30.20 in 10.0 mi Calm Calm - N/A   Mostly Cloudy
5:55 PM 60.8 °F 44.6 °F 55% 30.19 in 10.0 mi Calm Calm - N/A   Partly Cloudy
6:15 PM 60.8 °F 44.6 °F 55% 30.19 in 10.0 mi Calm Calm - N/A   Scattered Clouds
6:35 PM 60.8 °F 44.6 °F 55% 30.18 in 10.0 mi Calm Calm - N/A   Overcast
6:55 PM 60.8 °F 44.6 °F 55% 30.19 in 10.0 mi SSE 3.5 mph - N/A   Overcast
7:15 PM 60.8 °F 46.4 °F 59% 30.19 in 10.0 mi SSE 6.9 mph - N/A   Overcast
7:35 PM 60.8 °F 46.4 °F 59% 30.18 in 10.0 mi SSE 6.9 mph - N/A   Overcast
7:55 PM 60.8 °F 46.4 °F 59% 30.18 in 10.0 mi SSE 6.9 mph - N/A   Overcast
8:15 PM 60.8 °F 48.2 °F 63% 30.17 in 10.0 mi SSE 8.1 mph - N/A   Mostly Cloudy
8:35 PM 60.8 °F 48.2 °F 63% 30.16 in 10.0 mi South 9.2 mph - N/A   Partly Cloudy
8:55 PM 60.8 °F 48.2 °F 63% 30.16 in 10.0 mi South 12.7 mph 16.1 mph N/A   Clear
9:15 PM 60.8 °F 48.2 °F 63% 30.15 in 10.0 mi South 10.4 mph - N/A   Partly Cloudy
9:35 PM 60.8 °F 48.2 °F 63% 30.16 in 10.0 mi South 8.1 mph - N/A   Partly Cloudy
9:55 PM 59.0 °F 48.2 °F 67% 30.17 in 10.0 mi South 5.8 mph 17.3 mph N/A   Mostly Cloudy
10:15 PM 59.0 °F 48.2 °F 67% 30.17 in 10.0 mi SSE 9.2 mph - N/A   Overcast
10:35 PM 59.0 °F 48.2 °F 67% 30.17 in 10.0 mi South 5.8 mph - N/A   Overcast
10:55 PM 59.0 °F 48.2 °F 67% 30.16 in 10.0 mi SSE 5.8 mph - N/A   Overcast
11:15 PM 59.0 °F 48.2 °F 67% 30.16 in 10.0 mi Calm Calm - N/A   Overcast
11:35 PM 59.0 °F 48.2 °F 67% 30.15 in 10.0 mi SSE 5.8 mph - N/A   Overcast
11:55 PM 57.2 °F 48.2 °F 72% 30.14 in 10.0 mi SSE 5.8 mph - N/A   Mostly Cloudy